This demonstration page uses our WeatherBlox Daily Observations layout. Learn more.

Left ArrowRight Arrow

34.74481, -87.66753

Hourly Observations for February 7, 2021

Temp ( °F °C ) Dew Point ( °F °C ) Humidity (%) Winds ( mph kmh ) Pressure ( in mb ) Visibility ( mi km ) Precip ( " mm )
12:26 am 00:26 Cloudy with Light Rain 38 3.3 32 0 79 79 NE 6 9 29.96 1015 8 13 0.00 0.00
12:53 am 00:53 Cloudy 38 3.3 33 0.6 83 83 NE 6 9 29.95 1014 8 13 0.00 0.00
1:53 am 01:53 Cloudy 38 3.3 33 0.6 83 83 NNW 6 9 29.98 1015 10 16 0.01 0.25
2:16 am 02:16 Cloudy 38 3.3 33 0.6 83 83 N 5 7 30.00 1016 10 16 0.00 0.00
2:45 am 02:45 Cloudy 38 3.3 33 0.6 83 83 N 3 6 30.01 1016 10 16 0.00 0.00
2:53 am 02:53 Cloudy 38 3.3 33 0.6 83 83 Calm 29.99 1016 10 16 0.00 0.00
3:20 am 03:20 Cloudy 38 3.3 33 0.6 83 83 NNW 6 9 30.03 1017 10 16 0.00 0.00
3:32 am 03:32 Cloudy 38 3.3 33 0.6 83 83 VRB 6 9 30.02 1017 10 16 0.00 0.00
3:53 am 03:53 Cloudy 39 3.9 33 0.6 79 79 N 7 11 30.00 1016 10 16 0.00 0.00
4:53 am 04:53 Cloudy 39 3.9 33 0.6 79 79 N 6 9 30.02 1017 10 16 0.00 0.00
5:20 am 05:20 Cloudy 39 3.9 33 0.6 79 79 N 6 9 30.06 1018 10 16 0.00 0.00
5:53 am 05:53 Cloudy 39 3.9 32 0 76 76 N 7 11 30.06 1018 10 16 0.00 0.00
6:23 am 06:23 Cloudy 39 3.9 32 0 76 76 NNE 6 9 30.09 1019 10 16 0.00 0.00
6:53 am 06:53 Cloudy 39 3.9 32 0 76 76 N 6 9 30.08 1019 10 16 0.00 0.00
7:53 am 07:53 Cloudy 39 3.9 32 0 76 76 N 7 11 30.09 1019 10 16 0.00 0.00
8:53 am 08:53 Cloudy 39 3.9 32 0 76 76 N 8 13 30.13 1020 10 16 0.00 0.00
9:42 am 09:42 Cloudy 38 3.3 31 -0.6 76 76 NNE 10 17 30.16 1021 10 16 0.00 0.00
9:53 am 09:53 Cloudy 38 3.3 31 -0.6 76 76 NNE 12 19 30.14 1021 10 16 0.00 0.00
10:53 am 10:53 Cloudy 39 3.9 31 -0.6 73 73 NE 9 15 30.14 1021 10 16 0.00 0.00
11:09 am 11:09 Cloudy 39 3.9 31 -0.6 73 73 NE 8 13 30.15 1021 9 14 0.00 0.00
11:35 am 11:35 Cloudy 38 3.3 30 -1.1 73 73 NE 7 11 30.17 1022 10 16 0.00 0.00
11:53 am 11:53 Cloudy 39 3.9 30 -1.1 70 70 N 8 13 30.17 1022 10 16 0.00 0.00
12:53 pm 12:53 Cloudy 38 3.3 30 -1.1 73 73 VRB 5 7 30.17 1022 10 16 0.00 0.00
1:53 pm 13:53 Cloudy 38 3.3 29 -1.7 70 70 NNE 8 13 30.16 1021 10 16 0.00 0.00
2:53 pm 14:53 Cloudy 38 3.3 29 -1.7 70 70 NNE 6 9 30.15 1021 10 16 0.00 0.00
3:53 pm 15:53 Cloudy 37 2.8 29 -1.7 73 73 NE 7 11 30.15 1021 9 14 0.00 0.00
4:53 pm 16:53 Cloudy 37 2.8 29 -1.7 73 73 ENE 7 11 30.16 1021 8 13 0.00 0.00
5:53 pm 17:53 Cloudy 37 2.8 28 -2.2 70 70 ESE 7 11 30.17 1022 9 14 0.00 0.00
6:53 pm 18:53 Cloudy 36 2.2 28 -2.2 73 73 E 8 13 30.17 1022 10 16 0.00 0.00
7:53 pm 19:53 Cloudy 36 2.2 27 -2.8 70 70 ENE 6 9 30.19 1022 10 16 0.00 0.00
8:53 pm 20:53 Cloudy 35 1.7 27 -2.8 72 72 ENE 6 9 30.20 1023 10 16 0.00 0.00
9:53 pm 21:53 Cloudy 35 1.7 27 -2.8 72 72 NE 6 9 30.20 1023 10 16 0.00 0.00
10:53 pm 22:53 Cloudy 35 1.7 27 -2.8 72 72 E 6 9 30.20 1023 8 13 0.00 0.00
11:06 pm 23:06 Cloudy 34 1.1 27 -2.8 76 76 ESE 6 9 30.22 1023 9 14 0.00 0.00
11:53 pm 23:53 Cloudy 34 1.1 27 -2.8 76 76 E 5 7 30.21 1023 9 14 0.00 0.00

Powered by AerisWeather